EW5770 Weather Reports


time (UTC)temp
F
wind
direction
speed
knots
gust
knots
rain 1hr
in
rain 24hr
in
rain mn
in
humidity
%
barometer
mb
20240614111001 69 212 3.5 9.6 0.00 0.00 0.00 75 1018.1
20240614110458 69 230 1.7 9.6 0.00 0.00 0.00 75 1018.2
20240614110022 69 185 4.3 8.7 0.00 0.00 0.00 75 1018.2
20240614105525 69 240 2.6 8.7 0.00 0.00 0.00 75 1018.4
20240614105001 69 156 3.5 9.6 0.00 0.00 0.00 75 1018.3
20240614104505 69 186 0.9 9.6 0.00 0.00 0.00 74 1018.2
20240614104029 69 111 3.5 9.6 0.00 0.00 0.00 74 1018.3
20240614103505 69 218 3.5 12.2 0.00 0.00 0.00 73 1018.3
20240614103030 69 250 5.2 12.2 0.00 0.00 0.00 73 1018.2
20240614102534 69 207 3.5 14.8 0.00 0.00 0.00 73 1018.1
20240614102030 69 183 7.0 16.5 0.00 0.00 0.00 72 1018.1
20240614101513 69 84 4.3 16.5 0.00 0.00 0.00 70 1018.1
20240614101010 70 241 7.0 16.5 0.00 0.00 0.00 69 1018.1
20240614100514 69 127 7.0 16.5 0.00 0.00 0.00 70 1018.1
20240614100009 70 138 6.1 13.9 0.00 0.00 0.00 71 1018.3
20240614095513 70 224 7.0 12.2 0.00 0.00 0.00 71 1018.1
20240614095010 69 210 2.6 17.4 0.00 0.00 0.00 74 1018.1
20240614094534 69 234 4.3 17.4 0.00 0.00 0.00 74 1018.1
20240614094017 69 156 3.5 16.5 0.00 0.00 0.00 75 1018.0
20240614093512 69 228 9.6 16.5 0.00 0.00 0.00 74 1018.0
20240614093008 69 218 5.2 14.8 0.00 0.00 0.00 75 1018.0
20240614092532 68 215 4.3 14.8 0.00 0.00 0.00 75 1018.0
20240614092015 68 187 3.5 9.6 0.00 0.00 0.00 77 1018.1
20240614091511 68 153 4.3 13.9 0.00 0.00 0.00 78 1018.0
20240614091005 68 232 5.2 14.8 0.00 0.00 0.00 78 1017.9
20240614090530 68 233 4.3 11.3 0.00 0.00 0.00 77 1018.1
20240614090012 68 220 6.1 13.0 0.00 0.00 0.00 78 1018.1
20240614085508 67 205 6.1 13.0 0.00 0.00 0.00 78 1017.9
20240614085012 68 162 3.5 12.2 0.00 0.00 0.00 78 1017.9
20240614084538 67 163 4.3 12.2 0.00 0.00 0.00 79 1017.9
20240614084013 67 212 4.3 13.0 0.00 0.00 0.00 79 1017.8
20240614083510 67 228 3.5 11.3 0.00 0.00 0.00 80 1017.7
20240614083014 67 175 4.3 10.4 0.00 0.00 0.00 80 1017.7
20240614082535 68 205 5.2 10.4 0.00 0.00 0.00 80 1017.7
20240614082010 67 145 4.3 11.3 0.00 0.00 0.00 80 1017.7
20240614081536 67 117 1.7 11.3 0.00 0.00 0.00 81 1017.8
20240614081014 67 184 5.2 10.4 0.00 0.00 0.00 79 1017.7
20240614080518 68 237 2.6 10.4 0.00 0.00 0.00 78 1017.7
20240614080014 68 206 3.5 7.0 0.00 0.00 0.00 76 1017.6
20240614075518 68 155 2.6 7.0 0.00 0.00 0.00 75 1017.7
20240614075015 68 207 1.7 12.2 0.00 0.00 0.00 75 1017.7
20240614074518 67 205 3.5 12.2 0.00 0.00 0.00 75 1017.8
20240614073955 68 295 2.6 7.0 0.00 0.00 0.00 74 1017.7
20240614073519 67 256 2.6 10.4 0.00 0.00 0.00 74 1017.6
20240614073036 67 207 5.2 10.4 0.00 0.00 0.00 74 1017.6
20240614072519 67 160 4.3 8.7 0.00 0.00 0.00 75 1017.6
20240614071956 68 151 3.5 12.2 0.00 0.00 0.00 76 1017.5
20240614071519 68 169 5.2 12.2 0.00 0.00 0.00 76 1017.5
20240614070955 68 126 6.1 10.4 0.00 0.00 0.00 77 1017.4
20240614070519 68 117 1.7 11.3 0.00 0.00 0.00 78 1017.3
20240614065955 68 167 4.3 11.3 0.00 0.00 0.00 78 1017.3
20240614065520 67 187 4.3 10.4 0.00 0.00 0.00 78 1017.3
20240614065015 67 236 4.3 13.0 0.00 0.00 0.00 78 1017.2
20240614064519 67 246 3.5 13.0 0.00 0.00 0.00 78 1017.2
20240614064043 67 187 2.6 8.7 0.00 0.00 0.00 78 1017.2
20240614063458 67 155 2.6 12.2 0.00 0.00 0.00 77 1017.1
20240614062955 67 129 5.2 12.2 0.00 0.00 0.00 75 1017.1
20240614062459 67 85 2.6 7.8 0.00 0.00 0.00 73 1017.0
20240614061956 67 4 4.3 10.4 0.00 0.00 0.00 73 1016.9
20240614061520 67 78 3.5 10.4 0.00 0.00 0.00 74 1016.9
20240614061017 67 58 1.7 5.2 0.00 0.00 0.00 74 1016.9
20240614060500 67 200 1.7 6.1 0.00 0.00 0.00 74 1016.9
20240614055956 66 222 0.9 10.4 0.00 0.00 0.00 74 1016.8
20240614055500 66 302 2.6 10.4 0.00 0.00 0.00 75 1016.8
20240614054957 66 58 3.5 7.8 0.00 0.00 0.00 75 1016.8
20240614054500 66 260 1.7 12.2 0.00 0.00 0.00 75 1016.7
20240614053956 66 321 4.3 12.2 0.00 0.00 0.00 76 1016.6
20240614053516 65 33 0.9 2.6 0.00 0.00 0.00 77 1016.7
20240614052956 65 323 0.0 2.6 0.00 0.00 0.00 78 1016.7
20240614052517 64 8 0.0 3.5 0.00 0.00 0.00 79 1016.8
20240614051957 64 259 0.9 3.5 0.00 0.00 0.00 81 1016.7
20240614051538 63 146 0.0 3.5 0.00 0.00 0.00 83 1016.7
20240614051030 63 243 1.7 3.5 0.00 0.00 0.00 83 1016.6
20240614050541 62 112 0.0 2.6 0.00 0.00 0.00 85 1016.6
20240614050009 61 240 2.6 2.6 0.00 0.00 0.00 87 1016.6
20240614045459 61 278 0.9 3.5 0.00 0.00 0.00 87 1016.7
20240614045024 60 82 1.7 3.5 0.00 0.00 0.00 88 1016.8
20240614044500 60 82 0.9 1.7 0.00 0.00 0.00 88 1016.8
20240614044004 60 51 0.0 1.7 0.00 0.00 0.00 89 1016.7
20240614043458 59 50 0.0 4.3 0.00 0.00 0.00 89 1016.7
20240614043023 59 50 1.7 4.3 0.00 0.00 0.00 90 1016.8
20240614042526 59 53 0.0 1.7 0.00 0.00 0.00 89 1016.9
20240614042003 59 76 0.9 2.6 0.00 0.00 0.00 89 1016.9
20240614041507 59 61 1.7 2.6 0.00 0.00 0.00 89 1017.0
20240614041003 59 32 0.9 2.6 0.00 0.00 0.00 88 1017.0
20240614040527 59 37 0.9 2.6 0.00 0.00 0.00 88 1017.0
20240614040008 59 38 0.9 3.5 0.00 0.00 0.00 88 1017.0
20240614035502 59 4 1.7 3.5 0.00 0.00 0.00 88 1017.0
20240614034959 59 340 2.6 3.5 0.00 0.00 0.00 88 1017.0
20240614034503 59 25 2.6 3.5 0.00 0.00 0.00 89 1017.0
20240614033959 58 10 2.6 3.5 0.00 0.00 0.00 89 1017.1
20240614033503 58 13 2.6 3.5 0.00 0.00 0.00 89 1017.1
20240614033000 58 13 1.7 4.3 0.00 0.00 0.00 89 1017.1
20240614032524 58 6 1.7 4.3 0.00 0.00 0.00 89 1017.2
20240614032000 58 359 2.6 3.5 0.00 0.00 0.00 89 1017.2
20240614031504 58 23 1.7 2.6 0.00 0.00 0.00 89 1017.2
20240614031020 58 330 0.9 2.6 0.00 0.00 0.00 89 1017.2
20240614030456 58 25 1.7 2.6 0.00 0.00 0.00 89 1017.1
20240614025959 58 42 0.9 2.6 0.00 0.00 0.00 89 1017.0
20240614025456 58 19 0.0 2.6 0.00 0.00 0.00 89 1017.1
20240614025020 58 39 1.7 3.5 0.00 0.00 0.00 88 1017.0
20240614024457 58 31 1.7 5.2 0.00 0.00 0.00 88 1017.1
20240614024021 58 13 3.5 5.2 0.00 0.00 0.00 87 1017.1
20240614023458 58 47 2.6 3.5 0.00 0.00 0.00 87 1017.1
20240614023022 58 19 3.5 3.5 0.00 0.00 0.00 87 1017.1
20240614022455 58 23 1.7 4.3 0.00 0.00 0.00 87 1017.1
20240614022012 58 27 1.7 4.3 0.00 0.00 0.00 88 1017.1
20240614021515 58 6 2.6 4.3 0.00 0.00 0.00 88 1017.1
20240614021002 58 14 3.5 4.3 0.00 0.00 0.00 88 1017.2
20240614020459 57 30 3.5 4.3 0.00 0.00 0.00 88 1017.3
20240614020002 57 17 3.5 7.0 0.00 0.00 0.00 88 1017.3
20240614015459 57 15 5.2 7.0 0.00 0.00 0.00 88 1017.3
20240614015002 57 24 3.5 5.2 0.00 0.00 0.00 88 1017.4
20240614014459 58 16 2.6 5.2 0.00 0.00 0.00 88 1017.4
20240614014003 58 25 2.6 5.2 0.00 0.00 0.00 88 1017.4
20240614013500 58 23 4.3 5.2 0.00 0.00 0.00 88 1017.4
20240614013004 58 27 2.6 4.3 0.00 0.00 0.00 88 1017.4
20240614012501 58 22 1.7 6.1 0.00 0.00 0.00 87 1017.4
20240614012005 58 21 4.3 6.1 0.00 0.00 0.00 88 1017.5
20240614011502 58 25 4.3 5.2 0.00 0.00 0.00 87 1017.7
20240614010958 58 23 3.5 4.3 0.00 0.00 0.00 87 1017.7
20240614010523 58 8 2.6 5.2 0.00 0.00 0.00 87 1017.7
20240614010005 58 355 4.3 6.1 0.00 0.04 0.00 88 1017.7
20240614005502 58 4 3.5 4.3 0.00 0.04 0.00 87 1017.7
20240614005027 58 356 2.6 4.3 0.00 0.04 0.00 87 1017.7
20240614004531 58 3 2.6 4.3 0.00 0.04 0.00 88 1017.8
20240614004006 58 19 1.7 4.3 0.00 0.04 0.00 88 1017.8
20240614003511 58 13 3.5 4.3 0.00 0.04 0.00 88 1017.9
20240614003008 58 17 1.7 3.5 0.00 0.04 0.00 88 1017.9
20240614002531 58 6 1.7 3.5 0.00 0.04 0.00 88 1017.9
20240614002007 58 16 2.6 3.5 0.00 0.04 0.00 87 1017.9
20240614001511 58 11 0.9 1.7 0.00 0.04 0.00 87 1017.9
20240614001008 58 11 0.0 1.7 0.00 0.04 0.00 87 1018.0
20240614000533 58 11 0.0 5.2 0.00 0.04 0.00 87 1018.0
20240614000035 58 16 2.6 5.2 0.00 0.35 0.00 88 1017.9
20240613235518 58 22 1.7 3.5 0.00 0.35 0.00 88 1017.9
20240613235030 58 22 0.9 2.6 0.00 0.35 0.00 87 1018.0
20240613234513 58 22 0.0 1.7 0.00 0.35 0.00 88 1018.1
20240613234010 58 22 0.9 3.5 0.00 0.35 0.00 88 1018.1
20240613233534 58 338 0.9 3.5 0.00 0.35 0.00 87 1018.0
20240613233010 58 7 0.0 1.7 0.00 0.35 0.00 87 1018.0
20240613232513 58 7 0.0 1.7 0.00 0.35 0.00 86 1018.0
20240613232001 59 16 0.9 1.7 0.00 0.35 0.00 85 1017.9
20240613231505 60 337 0.0 0.9 0.00 0.35 0.00 84 1017.9
20240613231022 60 330 0.0 3.5 0.00 0.35 0.00 84 1017.9
20240613230505 60 330 1.7 3.5 0.00 0.35 0.00 84 1017.9
20240613230001 60 308 1.7 3.5 0.00 0.35 0.00 84 1017.8
20240613225505 60 345 2.6 4.3 0.00 0.35 0.00 84 1017.9
20240613225002 60 335 2.6 5.2 0.00 0.35 0.00 84 1017.9
20240613224527 60 335 3.5 5.2 0.00 0.35 0.00 84 1017.9
20240613224009 60 339 3.5 6.1 0.00 0.35 0.00 84 1017.9
20240613223507 60 16 4.3 6.1 0.00 0.35 0.00 84 1017.9
20240613223008 60 13 5.2 6.1 0.00 0.35 0.00 84 1017.8
20240613222504 60 338 4.3 7.0 0.00 0.35 0.00 85 1017.9
20240613222001 60 11 5.2 9.6 0.00 0.35 0.00 84 1017.9
20240613221505 60 345 4.3 9.6 0.00 0.35 0.00 83 1017.9
20240613221002 60 16 5.2 7.8 0.00 0.35 0.00 83 1018.0
20240613220505 60 13 6.1 7.8 0.00 0.35 0.00 83 1018.0
20240613220030 60 19 3.5 5.2 0.00 0.35 0.07 84 1017.9
20240613215505 60 333 3.5 5.2 0.00 0.35 0.07 85 1017.9
20240613215031 60 340 3.5 6.1 0.00 0.35 0.07 86 1018.0
20240613214533 60 15 4.3 6.1 0.00 0.35 0.07 86 1017.9
20240613214009 60 12 3.5 5.2 0.00 0.35 0.07 86 1018.0
20240613213513 60 16 2.6 3.5 0.00 0.35 0.07 86 1017.9
20240613213010 61 35 0.9 2.6 0.00 0.35 0.07 85 1017.9
20240613212503 61 360 0.0 2.6 0.00 0.35 0.07 85 1017.7
20240613212007 61 345 0.9 2.6 0.00 0.35 0.07 84 1017.6
20240613211504 61 354 0.0 3.5 0.00 0.35 0.07 84 1017.6
20240613211029 61 334 1.7 5.2 0.00 0.35 0.07 84 1017.5
20240613210512 62 328 2.6 5.2 0.00 0.35 0.07 83 1017.4
20240613210008 62 346 1.7 4.3 0.00 0.35 0.07 81 1017.4
20240613205512 62 12 2.6 4.3 0.00 0.35 0.07 81 1017.4
20240613205008 62 338 2.6 5.2 0.00 0.35 0.07 80 1017.4
20240613204510 63 20 4.3 5.2 0.00 0.35 0.07 80 1017.4
20240613204026 62 333 2.6 3.5 0.00 0.35 0.07 82 1017.3
20240613203509 62 20 2.6 5.2 0.00 0.35 0.07 83 1017.2
20240613203005 62 323 3.5 5.2 0.00 0.35 0.07 84 1017.2
20240613202510 62 9 2.6 5.2 0.00 0.35 0.07 85 1017.2
20240613202007 62 18 3.5 5.2 0.00 0.35 0.07 84 1017.2
20240613201532 62 342 2.6 5.2 0.00 0.35 0.07 84 1017.2
20240613201007 63 2 2.6 3.5 0.00 0.35 0.07 83 1017.2
20240613200511 63 345 1.7 5.2 0.00 0.35 0.07 84 1017.1
20240613200007 63 321 3.5 5.2 0.00 0.35 0.07 84 1017.0
20240613195511 63 329 2.6 5.2 0.00 0.35 0.07 84 1016.9
20240613195008 63 338 2.6 6.1 0.00 0.35 0.07 84 1016.9
20240613194512 63 341 3.5 6.1 0.00 0.35 0.07 83 1016.8
20240613194006 63 359 1.7 2.6 0.00 0.35 0.07 82 1016.7
20240613193510 64 8 1.7 2.6 0.00 0.35 0.07 81 1016.6
20240613193006 64 322 0.0 2.6 0.00 0.35 0.07 80 1016.6
20240613192503 64 304 2.6 2.6 0.00 0.35 0.07 81 1016.4
20240613192007 64 316 1.7 4.3 0.00 0.35 0.07 81 1016.4
20240613191531 64 306 1.7 5.2 0.00 0.35 0.07 81 1016.4
20240613191013 65 323 2.6 4.3 0.00 0.35 0.07 80 1016.3
20240613190518 65 17 3.5 4.3 0.00 0.35 0.07 80 1016.3
20240613190012 65 333 2.6 4.3 0.00 0.35 0.07 79 1016.3
20240613185516 65 356 2.6 4.3 0.00 0.35 0.07 79 1016.4
20240613185034 66 337 2.6 4.3 0.00 0.35 0.07 78 1016.4
20240613184517 66 339 0.0 3.5 0.00 0.35 0.07 76 1016.4
20240613184014 66 338 1.7 4.3 0.00 0.35 0.07 76 1016.4
20240613183518 66 336 2.6 4.3 0.00 0.35 0.07 76 1016.4
20240613183014 67 323 0.9 2.6 0.00 0.35 0.07 74 1016.3
20240613182457 67 260 0.9 3.5 0.00 0.35 0.07 74 1016.3
20240613182038 67 247 0.9 3.5 0.00 0.35 0.07 74 1016.2
20240613181457 67 226 1.7 4.3 0.00 0.35 0.07 73 1016.2
20240613181017 67 212 0.9 4.3 0.00 0.35 0.07 73 1016.2
20240613180457 67 252 2.6 4.3 0.00 0.35 0.07 73 1016.2
20240613180016 67 238 2.6 4.3 0.00 0.35 0.07 73 1016.1
20240613175457 68 217 0.9 4.3 0.00 0.35 0.07 73 1016.1
20240613175037 68 226 0.9 4.3 0.00 0.35 0.07 72 1016.1
20240613174513 68 233 1.7 3.5 0.00 0.35 0.07 72 1016.0
20240613174017 68 210 1.7 3.5 0.00 0.35 0.07 71 1016.0
20240613173514 68 250 2.6 4.3 0.00 0.35 0.07 71 1015.9
20240613173018 68 221 2.6 4.3 0.00 0.35 0.07 71 1015.9
20240613172515 69 240 1.7 4.3 0.00 0.35 0.07 70 1015.9
20240613172012 69 220 1.7 4.3 0.00 0.35 0.07 69 1015.8
20240613171516 69 255 1.7 6.1 0.00 0.35 0.07 69 1015.7
20240613171003 70 245 3.5 6.1 0.00 0.35 0.07 68 1015.6
20240613170500 70 231 0.9 5.2 0.00 0.35 0.07 69 1015.6
20240613170003 70 215 1.7 7.0 0.00 0.35 0.07 69 1015.5
20240613165500 70 218 2.6 7.8 0.00 0.35 0.07 69 1015.5
20240613165004 70 235 3.5 7.8 0.00 0.35 0.07 68 1015.5
20240613164521 70 248 2.6 7.0 0.00 0.35 0.07 69 1015.5
20240613164003 70 186 1.7 6.1 0.00 0.35 0.07 70 1015.5
20240613163500 70 247 2.6 8.7 0.00 0.35 0.07 70 1015.5
20240613163003 70 236 3.5 10.4 0.00 0.35 0.07 71 1015.5
20240613162528 69 229 7.8 10.4 0.00 0.35 0.07 70 1015.5
20240613162001 70 221 5.2 9.6 0.00 0.35 0.07 70 1015.4
20240613161457 70 159 5.2 9.6 0.00 0.35 0.07 70 1015.3
20240613161001 70 234 3.5 11.3 0.00 0.35 0.07 70 1015.2
20240613160523 69 162 6.1 13.0 0.00 0.35 0.07 71 1015.3
20240613155957 70 229 5.2 13.0 0.00 0.35 0.07 71 1015.3
20240613155501 70 240 7.0 13.0 0.00 0.35 0.07 69 1015.3
20240613154958 71 234 5.2 10.4 0.00 0.35 0.07 69 1015.2
20240613154502 71 205 7.0 12.2 0.00 0.35 0.07 69 1015.2
20240613153958 71 215 5.2 12.2 0.00 0.35 0.07 68 1015.3
20240613153522 71 95 4.3 12.2 0.00 0.35 0.07 68 1015.2
20240613152958 71 199 6.1 11.3 0.00 0.35 0.07 67 1015.2
20240613152522 72 226 3.5 10.4 0.00 0.35 0.07 66 1015.1
20240613151959 72 240 3.5 13.0 0.00 0.35 0.07 67 1015.1
20240613151456 72 218 6.1 13.0 0.00 0.35 0.07 65 1015.1
20240613150959 72 172 2.6 12.2 0.00 0.35 0.07 65 1015.1
20240613150516 72 200 5.2 12.2 0.00 0.35 0.07 67 1015.0
20240613145959 73 171 4.3 9.6 0.00 0.35 0.07 65 1015.0
20240613145515 72 219 3.5 9.6 0.00 0.35 0.07 67 1015.0
20240613145019 71 150 3.5 12.2 0.00 0.35 0.07 66 1014.9
20240613144516 72 231 5.2 12.2 0.00 0.35 0.07 66 1014.9
20240613144019 72 250 6.1 11.3 0.00 0.35 0.07 66 1014.8
20240613143516 73 299 2.6 7.8 0.00 0.35 0.07 66 1014.8
20240613143020 72 102 5.2 11.3 0.00 0.35 0.07 67 1014.8
20240613142456 72 217 7.8 11.3 0.00 0.35 0.07 64 1014.8
20240613142014 72 156 2.6 9.6 0.00 0.35 0.07 66 1014.7
20240613141517 72 233 6.1 11.3 0.00 0.35 0.07 65 1014.7
20240613141014 72 243 5.2 11.3 0.00 0.35 0.07 66 1014.7
20240613140540 73 150 3.5 10.4 0.00 0.35 0.07 64 1014.7
20240613140014 73 250 2.6 7.8 0.00 0.35 0.07 65 1014.7
20240613135459 73 232 3.5 10.4 0.00 0.35 0.07 64 1014.6
20240613134957 73 167 4.3 10.4 0.00 0.35 0.07 65 1014.7
20240613134522 73 223 4.3 10.4 0.00 0.35 0.07 65 1014.6
20240613133959 74 149 4.3 9.6 0.00 0.35 0.07 64 1014.6
20240613133458 73 229 4.3 9.6 0.00 0.35 0.07 63 1014.6
20240613133024 74 122 1.7 10.4 0.00 0.35 0.07 62 1014.5
20240613132507 74 228 6.1 8.7 0.00 0.35 0.07 61 1014.6
20240613132005 75 269 4.3 7.0 0.00 0.35 0.07 58 1014.6
20240613131510 73 227 0.0 7.0 0.00 0.35 0.07 56 1014.7
20240613131008 72 106 1.7 7.8 0.00 0.35 0.07 56 1014.7
20240613130506 72 107 1.7 7.0 0.00 0.35 0.07 57 1014.6
20240613130030 72 95 2.6 8.7 0.00 0.35 0.07 59 1014.7
20240613125514 71 75 4.3 9.6 0.00 0.35 0.07 60 1014.7
20240613125012 71 91 6.1 11.3 0.00 0.35 0.07 60 1014.8
20240613124517 71 83 6.1 12.2 0.00 0.35 0.07 61 1014.9
20240613124014 70 103 7.8 12.2 0.00 0.35 0.07 61 1014.9
20240613123516 70 117 6.1 10.4 0.00 0.35 0.07 61 1014.9
20240613123014 70 51 5.2 12.2 0.00 0.35 0.07 63 1014.9
20240613122519 69 62 6.1 13.0 0.00 0.35 0.07 65 1014.9
20240613121956 69 84 8.7 14.8 0.00 0.35 0.07 65 1015.1
20240613121521 69 30 7.8 14.8 0.00 0.35 0.07 67 1015.1
20240613120958 69 81 10.4 16.5 0.00 0.35 0.07 68 1015.2
20240613120516 69 80 7.8 16.5 0.00 0.35 0.07 68 1015.0
20240613120021 69 84 12.2 17.4 0.00 0.35 0.07 67 1015.1
20240613115505 71 78 12.2 17.4 0.00 0.35 0.07 66 1015.2
20240613115003 73 84 7.0 15.6 0.00 0.35 0.07 62 1015.0
20240613114500 73 159 0.9 8.7 0.00 0.35 0.07 66 1014.6
20240613114005 72 255 2.6 8.7 0.00 0.35 0.07 67 1014.6
20240613113503 71 245 1.7 10.4 0.00 0.35 0.07 69 1014.6
20240613113007 71 278 6.1 10.4 0.00 0.35 0.07 68 1014.6
20240613112505 71 255 6.1 11.3 0.00 0.35 0.07 68 1014.5
20240613112006 72 208 3.5 10.4 0.00 0.35 0.07 68 1014.5
20240613111014 72 229 2.6 6.1 0.00 0.35 0.07 67 1014.4